Simultaneous Nadir Overpasses (SNOs) Predictions

Prediction of SNOs between GOES-16 and NOAA-19 Satellite Orbit:

Table of predicted SNOs for the next 14.0 days since TLE Epoch: 10/9/2018
Index Date Time (GOES-16) GOES-16 Lat,Lon NOAA-19 Lat,Lon Distance(km) Time Diff (sec)
1 10/10/2018 03:22:00 80.89, 104.31 80.89, 104.32 0.07 1
2 10/10/2018 16:58:08 80.89, -99.61 80.89, -99.60 0.07 1
3 10/12/2018 13:10:34 80.89, -42.74 80.89, -42.74 0.07 1
4 10/12/2018 23:22:40 80.89, 164.31 80.89, 164.32 0.07 1
5 10/15/2018 05:47:12 80.89, 68.20 80.89, 68.20 0.07 1
6 10/15/2018 07:29:13 80.89, 42.70 80.89, 42.71 0.07 1
7 10/17/2018 13:53:44 80.89, -53.45 80.89, -53.44 0.07 1
8 10/18/2018 08:35:55 80.89, 26.12 80.89, 26.12 0.07 1
9 10/18/2018 18:48:01 80.89,-126.85 80.89,-126.84 0.07 1
10 10/21/2018 01:12:33 80.89, 136.95 80.89, 136.95 0.07 1
11 10/22/2018 04:24:48 80.89, 89.02 80.89, 89.02 0.07 1
12 10/22/2018 07:48:50 80.89, 38.02 80.89, 38.03 0.07 1




NCC Satellite Simultaneous Nadir Overpasses (SNOs) Prediction Service
